Weather History for Peru, IL

Change the Weather History Date:

Monday, April 2, 2012

  Actual Average Record
Temperature  
Mean Temperature 60 °F -  
Max Temperature 73 °F 54 °F 78 °F (2003)
Min Temperature 47 °F 32 °F 22 °F (1992)
Degree Days  
Heating Degree Days 5    
Growing Degree Days 10 (Base 50)    
Moisture  
Dew Point 44 °F    
Average Humidity 61    
Maximum Humidity 86    
Minimum Humidity 36    
Precipitation  
Precipitation 0.00 in - - ()
Sea Level Pressure  
Sea Level Pressure 29.80 in    
Wind  
Wind Speed 16 mph (ESE)    
Max Wind Speed 23 mph    
Max Gust Speed 30 mph    
Visibility 8 miles    
Events      
Averages and records for this station are not official NWS values.
T = Trace of Precipitation, MM = Missing Value Source: NWS Daily Summary

Daily Weather History Graph

Daily Weather History Graph

Search for Another Location

Airport:

Trip Planner

Search our weather history database for the weather conditions in past years. The results will help you decide how hot, cold, wet, or windy it might be!

Date:

Astronomy

Apr. 02, 2012 Rise Set
Actual Time 6:37 AM CDT 7:23 PM CDT
Civil Twilight 6:09 AM CDT 7:51 PM CDT
Nautical Twilight 5:36 AM CDT 8:24 PM CDT
Astronomical Twilight 5:01 AM CDT 8:59 PM CDT
Moon 2:56 PM CDT (4/2) 3:53 AM CDT (4/2)
Length of Visible Light 13h 42m
Length of Day
12h 46m
Waxing Gibbous, 78% of the Moon is Illuminated
Apr 2
Waxing Gibbous
Apr 6
Full
Apr 13
Last Quarter
Apr 21
New
Apr 29
First Quarter

Hourly Weather History & Observations

Time (CDT) Temp. Dew Point Humidity Pressure Visibility Wind Dir Wind Speed Gust Speed Precip Events Conditions
12:15 AM 47.8 °F 42.3 °F 81% 29.75 in 5.0 mi East 15.0 mph 18.4 mph N/A   Haze
12:35 AM 47.5 °F 41.9 °F 81% 29.75 in 5.0 mi East 15.0 mph 18.4 mph N/A   Haze
12:55 AM 47.3 °F 41.9 °F 82% 29.75 in 5.0 mi East 16.1 mph - N/A   Haze
1:15 AM 47.3 °F 41.9 °F 82% 29.75 in 5.0 mi ENE 17.3 mph - N/A   Haze
1:35 AM 47.3 °F 41.9 °F 82% 29.75 in 5.0 mi East 13.8 mph 19.6 mph N/A   Haze
1:55 AM 47.7 °F 42.4 °F 82% 29.74 in 5.0 mi East 16.1 mph 20.7 mph N/A   Haze
2:15 AM 47.8 °F 42.8 °F 83% 29.73 in 5.0 mi ENE 18.4 mph - N/A   Haze
2:35 AM 47.8 °F 42.8 °F 83% 29.74 in 5.0 mi East 15.0 mph 21.9 mph N/A   Haze
2:55 AM 47.7 °F 43.0 °F 84% 29.74 in 5.0 mi East 13.8 mph 20.7 mph N/A   Haze
3:15 AM 47.7 °F 43.2 °F 84% 29.74 in 5.0 mi East 13.8 mph 17.3 mph N/A   Haze
3:35 AM 47.8 °F 43.7 °F 86% 29.74 in 4.0 mi East 16.1 mph - N/A   Clear
3:55 AM 48.2 °F 43.3 °F 83% 29.74 in 5.0 mi East 17.3 mph 21.9 mph N/A   Haze
4:15 AM 48.4 °F 43.7 °F 84% 29.74 in 5.0 mi East 13.8 mph - N/A   Clear
4:35 AM 48.2 °F 42.8 °F 82% 29.75 in 5.0 mi East 16.1 mph 20.7 mph N/A   Haze
4:55 AM 48.6 °F 43.2 °F 82% 29.76 in 5.0 mi East 17.3 mph - N/A   Haze
5:15 AM 49.1 °F 43.3 °F 81% 29.77 in 5.0 mi East 16.1 mph 21.9 mph N/A   Haze
5:35 AM 49.1 °F 43.7 °F 82% 29.78 in 5.0 mi East 13.8 mph 20.7 mph N/A   Haze
5:55 AM 49.1 °F 43.7 °F 82% 29.78 in 5.0 mi East 13.8 mph - N/A   Haze
6:15 AM 49.3 °F 43.9 °F 82% 29.79 in 5.0 mi East 13.8 mph - N/A   Haze
6:35 AM 49.3 °F 43.7 °F 81% 29.81 in 5.0 mi East 10.4 mph - N/A   Haze
6:55 AM 50.2 °F 44.2 °F 80% 29.81 in 4.0 mi East 12.7 mph 19.6 mph N/A   Haze
7:15 AM 50.9 °F 44.1 °F 77% 29.83 in 5.0 mi ESE 13.8 mph 21.9 mph N/A   Haze
7:35 AM 51.3 °F 44.2 °F 77% 29.83 in 5.0 mi East 15.0 mph 18.4 mph N/A   Haze
7:55 AM 52.2 °F 44.8 °F 76% 29.84 in 5.0 mi ESE 15.0 mph 19.6 mph N/A   Haze
8:15 AM 52.9 °F 44.2 °F 72% 29.84 in 5.0 mi East 17.3 mph 23.0 mph N/A   Haze
8:35 AM 53.8 °F 43.7 °F 69% 29.84 in 5.0 mi ESE 21.9 mph 29.9 mph N/A   Haze
8:55 AM 54.9 °F 43.3 °F 65% 29.84 in 7.0 mi ESE 23.0 mph 28.8 mph N/A   Clear
9:15 AM 56.3 °F 43.0 °F 61% 29.85 in 7.0 mi ESE 19.6 mph 25.3 mph N/A   Scattered Clouds
9:35 AM 57.0 °F 43.2 °F 60% 29.85 in 7.0 mi East 15.0 mph - N/A   Mostly Cloudy
9:55 AM 57.6 °F 43.0 °F 58% 29.84 in 10.0 mi ESE 19.6 mph 27.6 mph N/A   Scattered Clouds
10:15 AM 57.7 °F 42.8 °F 57% 29.86 in 10.0 mi ESE 18.4 mph 27.6 mph N/A   Clear
10:35 AM 59.0 °F 44.6 °F 59% 29.85 in 10.0 mi ESE 20.7 mph 27.6 mph N/A   Clear
10:55 AM 59.9 °F 43.7 °F 55% 29.86 in 10.0 mi ESE 17.3 mph 27.6 mph N/A   Clear
11:15 AM 61.0 °F 43.9 °F 53% 29.86 in 10.0 mi ESE 18.4 mph 27.6 mph N/A   Clear
11:35 AM 62.2 °F 44.4 °F 52% 29.86 in 10.0 mi ESE 21.9 mph 25.3 mph N/A   Clear
11:55 AM 63.1 °F 44.1 °F 50% 29.86 in 10.0 mi East 19.6 mph 25.3 mph N/A   Scattered Clouds
12:15 PM 64.6 °F 44.4 °F 48% 29.86 in 10.0 mi ESE 17.3 mph 27.6 mph N/A   Clear
12:35 PM 65.3 °F 44.2 °F 46% 29.85 in 10.0 mi ESE 18.4 mph 27.6 mph N/A   Clear
12:55 PM 66.9 °F 44.1 °F 44% 29.86 in 10.0 mi East 19.6 mph 26.5 mph N/A   Clear
1:15 PM 67.6 °F 44.8 °F 44% 29.85 in 10.0 mi ESE 16.1 mph 26.5 mph N/A   Clear
1:35 PM 68.5 °F 43.9 °F 41% 29.85 in 10.0 mi ESE 16.1 mph 26.5 mph N/A   Clear
1:55 PM 69.8 °F 44.2 °F 40% 29.84 in 10.0 mi ESE 13.8 mph 23.0 mph N/A   Clear
2:15 PM 70.0 °F 43.7 °F 39% 29.83 in 10.0 mi ESE 19.6 mph 27.6 mph N/A   Clear
2:35 PM 71.6 °F 44.2 °F 37% 29.82 in 10.0 mi ESE 19.6 mph 26.5 mph N/A   Clear
2:55 PM 71.6 °F 44.6 °F 38% 29.82 in 10.0 mi SE 18.4 mph 27.6 mph N/A   Clear
3:15 PM 72.1 °F 44.4 °F 37% 29.82 in 10.0 mi ESE 21.9 mph 28.8 mph N/A   Clear
3:35 PM 72.7 °F 44.8 °F 37% 29.81 in 10.0 mi ESE 18.4 mph 25.3 mph N/A   Clear
3:55 PM 72.7 °F 44.4 °F 36% 29.80 in 10.0 mi ESE 19.6 mph 25.3 mph N/A   Clear
4:15 PM 72.7 °F 44.8 °F 37% 29.81 in 10.0 mi ESE 16.1 mph 26.5 mph N/A   Clear
4:35 PM 73.0 °F 45.0 °F 37% 29.80 in 10.0 mi ESE 18.4 mph 25.3 mph N/A   Clear
4:55 PM 73.8 °F 46.6 °F 38% 29.81 in 10.0 mi SE 18.4 mph 23.0 mph N/A   Clear
5:15 PM 72.9 °F 46.4 °F 39% 29.81 in 10.0 mi SE 17.3 mph - N/A   Clear
5:35 PM 72.9 °F 46.4 °F 39% 29.80 in 10.0 mi ESE 17.3 mph - N/A   Clear
5:55 PM 72.7 °F 46.6 °F 39% 29.80 in 10.0 mi ESE 19.6 mph 23.0 mph N/A   Clear
6:15 PM 72.7 °F 47.5 °F 41% 29.80 in 10.0 mi SE 19.6 mph - N/A   Clear
6:35 PM 71.6 °F 48.0 °F 43% 29.80 in 10.0 mi SE 12.7 mph - N/A   Clear
6:55 PM 71.1 °F 49.1 °F 46% 29.80 in 10.0 mi ESE 12.7 mph - N/A   Clear
7:15 PM 70.0 °F 48.7 °F 47% 29.80 in 10.0 mi ESE 11.5 mph 20.7 mph N/A   Clear
7:35 PM 69.1 °F 48.6 °F 48% 29.80 in 10.0 mi ESE 13.8 mph - N/A   Clear
7:55 PM 68.2 °F 48.2 °F 49% 29.81 in 10.0 mi ESE 10.4 mph 20.7 mph N/A   Clear
8:15 PM 67.1 °F 46.6 °F 48% 29.81 in 10.0 mi East 8.1 mph - N/A   Clear
8:35 PM 66.2 °F 45.0 °F 46% 29.81 in 10.0 mi ESE 11.5 mph - N/A   Clear
8:55 PM 65.7 °F 44.8 °F 47% 29.82 in 10.0 mi ESE 8.1 mph 16.1 mph N/A   Clear
9:15 PM 65.1 °F 44.6 °F 47% 29.83 in 10.0 mi ESE 8.1 mph 16.1 mph N/A   Clear
9:35 PM 64.4 °F 44.6 °F 49% 29.83 in 10.0 mi ESE 8.1 mph - N/A   Clear
9:55 PM 63.7 °F 44.1 °F 49% 29.83 in 10.0 mi ESE 9.2 mph - N/A   Clear
10:15 PM 63.1 °F 43.9 °F 49% 29.84 in 10.0 mi ESE 11.5 mph - N/A   Clear
10:35 PM 62.6 °F 43.9 °F 50% 29.84 in 10.0 mi ESE 13.8 mph - N/A   Clear
10:55 PM 61.7 °F 44.1 °F 52% 29.84 in 10.0 mi ESE 10.4 mph - N/A   Clear
11:15 PM 60.8 °F 44.6 °F 55% 29.84 in 10.0 mi ESE 10.4 mph - N/A   Clear
11:35 PM 60.6 °F 44.8 °F 56% 29.84 in 10.0 mi ESE 8.1 mph - N/A   Clear
11:55 PM 60.1 °F 45.1 °F 58% 29.83 in 10.0 mi ESE 8.1 mph - N/A   Clear